Regional Weather Roundup
Issued by NWS Charleston, WV

Home | Current Version | Previous Version | Text Only | Print | Product List | Glossary Off
Versions: 1 2 3 4 5 6 7 8 9 10 11 12 13 14 15 16 17 18 19 20 21 22 23 24 25 26 27 28 29 30 31 32 33 34 35 36 37 38 39 40 41 42 43 44 45 46 47 48 49 50

422
ASUS41 KRLX 301410
RWRRLX
West Virginia Regional Weather Roundup
National Weather Service Charleston WV
1000 AM EDT MON MAY 30 2016

Note: "fair" indicates few or no clouds below 12,000 feet with no
significant weather and/or obstructions to visibility.

WVZ003-301500-
Northern Panhandle of West Virginia

CITY           SKY/WX    TMP DP  RH WIND       PRES   REMARKS
WHEELING         N/A     71  62  73 NW8       30.05R
$$

WVZ009-301500-
Northwest West Virginia

CITY           SKY/WX    TMP DP  RH WIND       PRES   REMARKS
PARKERSBURG      N/A     67  65  93 CALM      30.08R
$$

WVZ006-301500-
Western West Virginia

CITY           SKY/WX    TMP DP  RH WIND       PRES   REMARKS
HUNTINGTON       N/A     75  64  68 VRB3      30.05R
$$

WVZ015-301500-
West Central West Virginia

CITY           SKY/WX    TMP DP  RH WIND       PRES   REMARKS
CHARLESTON       N/A     72  64  76 CALM      30.06R
$$

WVZ022-031-301500-
North Central West Virginia

CITY           SKY/WX    TMP DP  RH WIND       PRES   REMARKS
CLARKSBURG       N/A     73  64  73 W3        30.05S
MORGANTOWN       N/A     73  60  63 VRB3      30.06S
$$

WVZ025-035-042-045-301500-
Southern West Virginia

CITY           SKY/WX    TMP DP  RH WIND       PRES   REMARKS
BECKLEY          N/A     71  57  61 W5        30.11R
LOGAN            N/A     72  64  78 CALM      30.08R
BLUEFIELD        N/A     66  58  75 VRB3      30.13S
LEWISBURG        N/A     61  57  86 SE3       30.11F
$$

WVZ047-301500-
Northern Mountains of West Virginia

CITY           SKY/WX    TMP DP  RH WIND       PRES   REMARKS
ELKINS           N/A     70  59  68 CALM      30.09F
$$

WVZ052-301500-
Eastern Panhandle of West Virginia

CITY           SKY/WX    TMP DP  RH WIND       PRES   REMARKS
MARTINSBURG      N/A     69  63  81 S5        30.03F
PETERSBURG       N/A     71  62  73 CALM      30.05F
$$




USA.gov is the U.S. government's official web portal to all federal, state and local government web resources and services.